| time (UTC) | temp F | wind direction | speed MPH | gust MPH | rain 1hr in | rain 24hr in | rain mn in | humidity % | barometer mb |
| 20260505165110 | 70 | 193 | 3.0 | 13.0 | 0.00 | 0.00 | 0.00 | 48 | 1017.5 |
| 20260505164610 | 70 | 188 | 5.0 | 10.0 | 0.00 | 0.00 | 0.00 | 49 | 1017.6 |
| 20260505164110 | 70 | 178 | 2.0 | 10.0 | 0.00 | 0.00 | 0.00 | 50 | 1017.7 |
| 20260505163610 | 70 | 194 | 6.0 | 10.0 | 0.00 | 0.00 | 0.00 | 51 | 1017.8 |
| 20260505163110 | 70 | 186 | 4.0 | 11.0 | 0.00 | 0.00 | 0.00 | 52 | 1017.7 |
| 20260505162610 | 70 | 185 | 1.0 | 11.0 | 0.00 | 0.00 | 0.00 | 52 | 1017.9 |
| 20260505162110 | 70 | 185 | 5.0 | 10.0 | 0.00 | 0.00 | 0.00 | 51 | 1017.9 |
| 20260505161610 | 70 | 174 | 2.0 | 10.0 | 0.00 | 0.00 | 0.00 | 54 | 1017.9 |
| 20260505161110 | 70 | 194 | 3.0 | 10.0 | 0.00 | 0.00 | 0.00 | 53 | 1018.1 |
| 20260505160610 | 70 | 180 | 1.0 | 8.0 | 0.00 | 0.00 | 0.00 | 53 | 1018.1 |
| 20260505160110 | 69 | 175 | 2.0 | 8.0 | 0.00 | 0.00 | 0.00 | 56 | 1018.1 |
| 20260505153110 | 68 | 185 | 1.0 | 8.0 | 0.00 | 0.00 | 0.00 | 57 | 1018.3 |
| 20260505152610 | 68 | 183 | 1.0 | 5.0 | 0.00 | 0.00 | 0.00 | 60 | 1018.3 |
| 20260505152110 | 67 | 181 | 1.0 | 7.0 | 0.00 | 0.00 | 0.00 | 61 | 1018.5 |
| 20260505151610 | 66 | 180 | 2.0 | 11.0 | 0.00 | 0.00 | 0.00 | 63 | 1018.3 |
| 20260505151110 | 66 | 169 | 3.0 | 11.0 | 0.00 | 0.00 | 0.00 | 61 | 1018.2 |
| 20260505150610 | 65 | 181 | 3.0 | 11.0 | 0.00 | 0.00 | 0.00 | 61 | 1018.2 |
| 20260505150110 | 66 | 181 | 2.0 | 11.0 | 0.00 | 0.00 | 0.00 | 62 | 1018.4 |
| 20260505140610 | 62 | 179 | 1.0 | 12.0 | 0.00 | 0.00 | 0.00 | 69 | 1017.9 |
| 20260505140110 | 61 | 174 | 5.0 | 15.0 | 0.00 | 0.00 | 0.00 | 66 | 1017.9 |
| 20260505130110 | 60 | 0 | 0.0 | 8.0 | 0.00 | 0.00 | 0.00 | 65 | 1017.8 |
| 20260505124540 | 59 | 0 | 0.0 | 5.0 | 0.00 | 0.00 | 0.00 | 66 | 1017.7 |
| 20260505123544 | 59 | 0 | 0.0 | 6.0 | 0.00 | 0.00 | 0.00 | 63 | 1017.5 |
| 20260505123039 | 58 | 0 | 0.0 | 10.0 | 0.00 | 0.00 | 0.00 | 66 | 1017.5 |
| 20260505122543 | 57 | 0 | 0.0 | 10.0 | 0.00 | 0.00 | 0.00 | 68 | 1017.4 |
| 20260505122039 | 57 | 231 | 1.0 | 10.0 | 0.00 | 0.00 | 0.00 | 68 | 1017.4 |
| 20260505121539 | 57 | 209 | 1.0 | 10.0 | 0.00 | 0.00 | 0.00 | 68 | 1017.3 |
| 20260505121040 | 56 | 224 | 1.0 | 8.0 | 0.00 | 0.00 | 0.00 | 69 | 1017.3 |
| 20260505120040 | 55 | 0 | 0.0 | 7.0 | 0.00 | 0.00 | 0.00 | 70 | 1017.3 |
| 20260505115539 | 55 | 0 | 0.0 | 7.0 | 0.00 | 0.00 | 0.00 | 71 | 1017.3 |
| 20260505115039 | 54 | 0 | 0.0 | 11.0 | 0.00 | 0.00 | 0.00 | 72 | 1017.4 |
| 20260505114539 | 54 | 225 | 2.0 | 11.0 | 0.00 | 0.00 | 0.00 | 74 | 1017.3 |
| 20260505114039 | 53 | 237 | 1.0 | 20.0 | 0.00 | 0.00 | 0.00 | 76 | 1017.2 |
| 20260505113538 | 53 | 210 | 2.0 | 20.0 | 0.00 | 0.00 | 0.00 | 76 | 1017.3 |
| 20260505113039 | 53 | 224 | 2.0 | 13.0 | 0.00 | 0.00 | 0.00 | 76 | 1017.1 |
| 20260505112539 | 53 | 0 | 0.0 | 13.0 | 0.00 | 0.00 | 0.00 | 76 | 1017.2 |
| 20260505112039 | 53 | 207 | 1.0 | 12.0 | 0.00 | 0.00 | 0.00 | 76 | 1017.2 |
| 20260505111539 | 53 | 198 | 1.0 | 12.0 | 0.00 | 0.00 | 0.00 | 76 | 1017.1 |
| 20260505111039 | 53 | 213 | 3.0 | 11.0 | 0.00 | 0.00 | 0.00 | 75 | 1017.1 |
| 20260505110539 | 53 | 227 | 1.0 | 9.0 | 0.00 | 0.00 | 0.00 | 75 | 1016.9 |
| 20260505102039 | 53 | 0 | 0.0 | 10.0 | 0.00 | 0.00 | 0.00 | 73 | 1016.8 |
| 20260505101541 | 53 | 0 | 0.0 | 10.0 | 0.00 | 0.00 | 0.00 | 73 | 1016.9 |
| 20260505101039 | 53 | 253 | 1.0 | 7.0 | 0.00 | 0.00 | 0.00 | 72 | 1016.7 |
| 20260505100539 | 54 | 210 | 1.0 | 7.0 | 0.00 | 0.00 | 0.00 | 71 | 1016.9 |
| 20260505100039 | 54 | 214 | 1.0 | 10.0 | 0.00 | 0.00 | 0.00 | 70 | 1016.8 |
| 20260505095544 | 54 | 219 | 2.0 | 10.0 | 0.00 | 0.00 | 0.00 | 70 | 1016.8 |
| 20260505095039 | 54 | 234 | 1.0 | 8.0 | 0.00 | 0.00 | 0.00 | 70 | 1016.7 |
| 20260505094540 | 54 | 219 | 2.0 | 11.0 | 0.00 | 0.00 | 0.00 | 69 | 1016.7 |
| 20260505094039 | 54 | 226 | 1.0 | 12.0 | 0.00 | 0.00 | 0.00 | 69 | 1016.8 |
| 20260505093539 | 54 | 203 | 2.0 | 12.0 | 0.00 | 0.00 | 0.00 | 68 | 1016.8 |
| 20260505093039 | 54 | 202 | 1.0 | 8.0 | 0.00 | 0.00 | 0.00 | 68 | 1016.8 |
| 20260505092539 | 54 | 202 | 2.0 | 9.0 | 0.00 | 0.00 | 0.00 | 67 | 1016.8 |
| 20260505092038 | 54 | 0 | 0.0 | 13.0 | 0.00 | 0.00 | 0.00 | 67 | 1016.7 |
| 20260505091539 | 54 | 206 | 3.0 | 13.0 | 0.00 | 0.00 | 0.00 | 66 | 1016.7 |
| 20260505091038 | 54 | 195 | 1.0 | 9.0 | 0.00 | 0.00 | 0.00 | 66 | 1016.6 |
| 20260505090539 | 55 | 217 | 1.0 | 7.0 | 0.00 | 0.00 | 0.00 | 66 | 1016.6 |
| 20260505090039 | 55 | 0 | 0.0 | 5.0 | 0.00 | 0.00 | 0.00 | 65 | 1016.5 |
| 20260505085539 | 55 | 0 | 0.0 | 0.0 | 0.00 | 0.00 | 0.00 | 65 | 1016.4 |
| 20260505085039 | 56 | 0 | 0.0 | 3.0 | 0.00 | 0.00 | 0.00 | 64 | 1016.4 |
| 20260505084539 | 56 | 0 | 0.0 | 7.0 | 0.00 | 0.00 | 0.00 | 63 | 1016.4 |
| 20260505084039 | 56 | 0 | 0.0 | 11.0 | 0.00 | 0.00 | 0.00 | 63 | 1016.4 |
| 20260505083540 | 56 | 202 | 3.0 | 11.0 | 0.00 | 0.00 | 0.00 | 63 | 1016.2 |
| 20260505083038 | 56 | 200 | 3.0 | 14.0 | 0.00 | 0.00 | 0.00 | 62 | 1016.2 |
| 20260505082539 | 56 | 0 | 0.0 | 14.0 | 0.00 | 0.00 | 0.00 | 62 | 1016.2 |
| 20260505082038 | 56 | 238 | 1.0 | 14.0 | 0.00 | 0.00 | 0.00 | 62 | 1016.2 |
| 20260505081539 | 56 | 207 | 3.0 | 14.0 | 0.00 | 0.00 | 0.00 | 62 | 1016.2 |
| 20260505081038 | 56 | 200 | 3.0 | 14.0 | 0.00 | 0.00 | 0.00 | 62 | 1016.1 |
| 20260505080539 | 56 | 200 | 4.0 | 15.0 | 0.00 | 0.00 | 0.00 | 62 | 1016.0 |
| 20260505080039 | 56 | 199 | 4.0 | 15.0 | 0.00 | 0.00 | 0.00 | 62 | 1016.1 |
| 20260505075539 | 56 | 200 | 4.0 | 11.0 | 0.00 | 0.00 | 0.00 | 62 | 1016.0 |
| 20260505075038 | 56 | 201 | 2.0 | 12.0 | 0.00 | 0.00 | 0.00 | 62 | 1016.0 |
| 20260505074539 | 56 | 196 | 5.0 | 12.0 | 0.00 | 0.00 | 0.00 | 61 | 1015.9 |
| 20260505074039 | 57 | 195 | 4.0 | 14.0 | 0.00 | 0.00 | 0.00 | 61 | 1015.9 |
| 20260505073541 | 57 | 209 | 3.0 | 14.0 | 0.00 | 0.00 | 0.00 | 61 | 1015.9 |
| 20260505073038 | 56 | 198 | 6.0 | 11.0 | 0.00 | 0.00 | 0.00 | 61 | 1015.9 |
| 20260505072539 | 57 | 195 | 5.0 | 10.0 | 0.00 | 0.00 | 0.00 | 61 | 1016.0 |
| 20260505072038 | 57 | 195 | 4.0 | 10.0 | 0.00 | 0.00 | 0.00 | 59 | 1015.9 |
| 20260505071400 | 57 | 192 | 2.0 | 10.0 | 0.00 | 0.00 | 0.00 | 59 | 1015.9 |
| 20260505070447 | 58 | 203 | 4.0 | 14.0 | 0.00 | 0.00 | 0.00 | 58 | 1015.9 |
| 20260505065947 | 58 | 197 | 4.0 | 17.0 | 0.00 | 0.00 | 0.00 | 58 | 1015.8 |
| 20260505065447 | 58 | 200 | 6.0 | 17.0 | 0.00 | 0.00 | 0.00 | 58 | 1015.7 |
| 20260505064947 | 58 | 196 | 5.0 | 16.0 | 0.00 | 0.00 | 0.00 | 58 | 1015.7 |
| 20260505064447 | 58 | 203 | 5.0 | 16.0 | 0.00 | 0.00 | 0.00 | 57 | 1015.8 |
| 20260505063947 | 58 | 196 | 3.0 | 19.0 | 0.00 | 0.00 | 0.00 | 58 | 1015.9 |
| 20260505063447 | 58 | 207 | 5.0 | 19.0 | 0.00 | 0.00 | 0.00 | 57 | 1016.1 |
| 20260505062947 | 58 | 196 | 6.0 | 15.0 | 0.00 | 0.00 | 0.00 | 57 | 1015.8 |
| 20260505062447 | 58 | 195 | 4.0 | 13.0 | 0.00 | 0.00 | 0.00 | 58 | 1015.8 |
| 20260505061947 | 58 | 191 | 5.0 | 12.0 | 0.00 | 0.00 | 0.00 | 57 | 1016.0 |
| 20260505061447 | 58 | 196 | 5.0 | 12.0 | 0.00 | 0.00 | 0.00 | 57 | 1016.0 |
| 20260505060947 | 58 | 192 | 4.0 | 13.0 | 0.00 | 0.00 | 0.00 | 57 | 1015.9 |
| 20260505060447 | 59 | 197 | 5.0 | 13.0 | 0.00 | 0.00 | 0.00 | 57 | 1015.9 |
| 20260505055947 | 59 | 195 | 5.0 | 14.0 | 0.00 | 0.00 | 0.00 | 56 | 1015.9 |
| 20260505055447 | 59 | 201 | 5.0 | 20.0 | 0.00 | 0.00 | 0.00 | 56 | 1016.0 |
| 20260505054947 | 59 | 199 | 9.0 | 20.0 | 0.00 | 0.00 | 0.00 | 56 | 1015.9 |
| 20260505054447 | 59 | 201 | 7.0 | 18.0 | 0.00 | 0.00 | 0.00 | 55 | 1016.0 |
| 20260505053947 | 59 | 196 | 7.0 | 13.0 | 0.00 | 0.00 | 0.00 | 55 | 1015.9 |
| 20260505053528 | 59 | 198 | 5.0 | 15.0 | 0.00 | 0.00 | 0.00 | 55 | 1016.0 |
| 20260505053447 | 59 | 198 | 5.0 | 15.0 | 0.00 | 0.00 | 0.00 | 55 | 1016.0 |
| 20260505052947 | 59 | 200 | 5.0 | 18.0 | 0.00 | 0.00 | 0.00 | 55 | 1016.0 |
| 20260505052447 | 60 | 198 | 5.0 | 18.0 | 0.00 | 0.00 | 0.00 | 54 | 1016.1 |
| 20260505051947 | 60 | 192 | 6.0 | 16.0 | 0.00 | 0.00 | 0.00 | 54 | 1015.9 |
| 20260505051447 | 60 | 196 | 5.0 | 15.0 | 0.00 | 0.00 | 0.00 | 54 | 1015.9 |
| 20260505050947 | 60 | 194 | 6.0 | 16.0 | 0.00 | 0.00 | 0.00 | 53 | 1015.9 |
| 20260505050447 | 61 | 198 | 6.0 | 16.0 | 0.00 | 0.00 | 0.00 | 53 | 1015.8 |
| 20260505041447 | 62 | 199 | 7.0 | 18.0 | 0.00 | 0.00 | 0.00 | 49 | 1015.8 |
| 20260505040436 | 62 | 198 | 5.0 | 15.0 | 0.00 | 0.00 | 0.00 | 49 | 1016.0 |
| 20260505035935 | 62 | 205 | 7.0 | 15.0 | 0.00 | 0.00 | 0.00 | 49 | 1015.8 |
| 20260505035435 | 62 | 201 | 6.0 | 15.0 | 0.00 | 0.00 | 0.00 | 49 | 1015.9 |
| 20260505034935 | 62 | 193 | 6.0 | 14.0 | 0.00 | 0.00 | 0.00 | 49 | 1016.0 |
| 20260505034435 | 62 | 196 | 7.0 | 14.0 | 0.00 | 0.00 | 0.00 | 48 | 1016.1 |
| 20260505033937 | 62 | 195 | 5.0 | 13.0 | 0.00 | 0.00 | 0.00 | 49 | 1016.1 |
| 20260505033435 | 62 | 199 | 7.0 | 16.0 | 0.00 | 0.00 | 0.00 | 49 | 1016.1 |
| 20260505032935 | 62 | 193 | 6.0 | 16.0 | 0.00 | 0.00 | 0.00 | 49 | 1016.2 |
| 20260505032435 | 62 | 196 | 5.0 | 15.0 | 0.00 | 0.00 | 0.00 | 48 | 1016.2 |
| 20260505031935 | 63 | 198 | 6.0 | 15.0 | 0.00 | 0.00 | 0.00 | 47 | 1016.3 |
| 20260505031435 | 63 | 193 | 5.0 | 14.0 | 0.00 | 0.00 | 0.00 | 47 | 1016.4 |
| 20260505030935 | 63 | 196 | 6.0 | 13.0 | 0.00 | 0.00 | 0.00 | 46 | 1016.4 |
| 20260505030435 | 64 | 198 | 5.0 | 15.0 | 0.00 | 0.00 | 0.00 | 45 | 1016.3 |
| 20260505025937 | 64 | 197 | 4.0 | 15.0 | 0.00 | 0.00 | 0.00 | 45 | 1016.4 |
| 20260505025435 | 64 | 199 | 5.0 | 15.0 | 0.00 | 0.00 | 0.00 | 44 | 1016.4 |
| 20260505024935 | 65 | 205 | 5.0 | 15.0 | 0.00 | 0.00 | 0.00 | 43 | 1016.4 |
| 20260505024409 | 65 | 200 | 5.0 | 16.0 | 0.00 | 0.00 | 0.00 | 43 | 1016.4 |
| 20260505023909 | 65 | 204 | 8.0 | 16.0 | 0.00 | 0.00 | 0.00 | 42 | 1016.3 |
| 20260505023409 | 65 | 197 | 5.0 | 14.0 | 0.00 | 0.00 | 0.00 | 42 | 1016.3 |
| 20260505022909 | 65 | 198 | 6.0 | 14.0 | 0.00 | 0.00 | 0.00 | 42 | 1016.3 |
| 20260505022409 | 65 | 197 | 5.0 | 13.0 | 0.00 | 0.00 | 0.00 | 43 | 1016.4 |
| 20260505021909 | 65 | 197 | 6.0 | 13.0 | 0.00 | 0.00 | 0.00 | 43 | 1016.4 |
| 20260505021409 | 65 | 198 | 5.0 | 13.0 | 0.00 | 0.00 | 0.00 | 43 | 1016.5 |
| 20260505020909 | 65 | 202 | 5.0 | 17.0 | 0.00 | 0.00 | 0.00 | 43 | 1016.5 |
| 20260505020409 | 65 | 201 | 6.0 | 17.0 | 0.00 | 0.00 | 0.00 | 43 | 1015.5 |
| 20260505015909 | 65 | 193 | 6.0 | 13.0 | 0.00 | 0.00 | 0.00 | 44 | 1015.5 |
| 20260505015409 | 65 | 195 | 4.0 | 13.0 | 0.00 | 0.00 | 0.00 | 44 | 1015.5 |
| 20260505014439 | 65 | 195 | 6.0 | 14.0 | 0.00 | 0.00 | 0.00 | 44 | 1015.5 |
| 20260505013938 | 65 | 200 | 5.0 | 14.0 | 0.00 | 0.00 | 0.00 | 45 | 1015.5 |
| 20260505013438 | 65 | 194 | 4.0 | 20.0 | 0.00 | 0.00 | 0.00 | 45 | 1015.4 |
| 20260505012938 | 65 | 198 | 6.0 | 20.0 | 0.00 | 0.00 | 0.00 | 44 | 1015.4 |
| 20260505012438 | 65 | 199 | 7.0 | 13.0 | 0.00 | 0.00 | 0.00 | 44 | 1015.3 |
| 20260505011938 | 65 | 195 | 5.0 | 12.0 | 0.00 | 0.00 | 0.00 | 44 | 1015.2 |
| 20260505011439 | 65 | 205 | 6.0 | 12.0 | 0.00 | 0.00 | 0.00 | 45 | 1015.3 |
| 20260505010938 | 65 | 198 | 5.0 | 13.0 | 0.00 | 0.00 | 0.00 | 46 | 1015.4 |
| 20260505010438 | 66 | 199 | 5.0 | 13.0 | 0.00 | 0.00 | 0.00 | 45 | 1015.2 |
| 20260505005938 | 66 | 195 | 6.0 | 13.0 | 0.00 | 0.00 | 0.00 | 44 | 1015.1 |
| 20260505005209 | 66 | 201 | 5.0 | 13.0 | 0.00 | 0.00 | 0.00 | 45 | 1015.0 |
| 20260505004709 | 66 | 196 | 4.0 | 10.0 | 0.00 | 0.00 | 0.00 | 45 | 1015.0 |
| 20260505004209 | 66 | 197 | 5.0 | 11.0 | 0.00 | 0.00 | 0.00 | 45 | 1015.0 |
| 20260505003709 | 66 | 199 | 5.0 | 11.0 | 0.00 | 0.00 | 0.00 | 45 | 1015.0 |
| 20260505003209 | 66 | 196 | 4.0 | 10.0 | 0.00 | 0.00 | 0.00 | 45 | 1015.0 |
| 20260505002709 | 66 | 201 | 4.0 | 12.0 | 0.00 | 0.00 | 0.00 | 45 | 1015.0 |
| 20260505002209 | 66 | 207 | 4.0 | 12.0 | 0.00 | 0.00 | 0.00 | 46 | 1015.0 |
| 20260505001709 | 66 | 201 | 4.0 | 9.0 | 0.00 | 0.00 | 0.00 | 46 | 1015.0 |
| 20260505001209 | 66 | 195 | 4.0 | 9.0 | 0.00 | 0.00 | 0.00 | 46 | 1014.9 |
| 20260505000709 | 66 | 196 | 4.0 | 11.0 | 0.00 | 0.00 | 0.00 | 46 | 1015.0 |
| 20260505000211 | 66 | 198 | 4.0 | 11.0 | 0.00 | 0.00 | 0.00 | 46 | 1015.0 |
| 20260504235709 | 67 | 197 | 5.0 | 10.0 | 0.00 | 0.00 | 0.00 | 46 | 1015.0 |
| 20260504235209 | 67 | 196 | 5.0 | 11.0 | 0.00 | 0.00 | 0.00 | 46 | 1014.9 |
| 20260504234710 | 67 | 194 | 5.0 | 12.0 | 0.00 | 0.00 | 0.00 | 46 | 1014.9 |
| 20260504234209 | 67 | 205 | 4.0 | 12.0 | 0.00 | 0.00 | 0.00 | 47 | 1014.8 |
| 20260504233709 | 67 | 201 | 5.0 | 11.0 | 0.00 | 0.00 | 0.00 | 47 | 1014.8 |
| 20260504233056 | 67 | 198 | 5.0 | 12.0 | 0.00 | 0.00 | 0.00 | 47 | 1014.8 |
| 20260504232558 | 67 | 195 | 6.0 | 12.0 | 0.00 | 0.00 | 0.00 | 47 | 1014.8 |
| 20260504231555 | 67 | 192 | 5.0 | 14.0 | 0.00 | 0.00 | 0.00 | 48 | 1014.8 |
| 20260504231055 | 67 | 196 | 7.0 | 14.0 | 0.00 | 0.00 | 0.00 | 48 | 1014.7 |
| 20260504230555 | 67 | 187 | 4.0 | 13.0 | 0.00 | 0.00 | 0.00 | 48 | 1014.7 |
| 20260504230055 | 67 | 186 | 3.0 | 13.0 | 0.00 | 0.00 | 0.00 | 47 | 1014.7 |
| 20260504225555 | 68 | 188 | 6.0 | 13.0 | 0.00 | 0.00 | 0.00 | 47 | 1014.6 |
| 20260504225055 | 68 | 200 | 5.0 | 13.0 | 0.00 | 0.00 | 0.00 | 47 | 1014.7 |
| 20260504224556 | 68 | 194 | 6.0 | 15.0 | 0.00 | 0.00 | 0.00 | 47 | 1014.7 |
| 20260504224055 | 68 | 201 | 6.0 | 15.0 | 0.00 | 0.00 | 0.00 | 47 | 1014.7 |
| 20260504223555 | 68 | 196 | 5.0 | 15.0 | 0.00 | 0.00 | 0.00 | 47 | 1014.6 |
| 20260504223055 | 68 | 179 | 4.0 | 15.0 | 0.00 | 0.00 | 0.00 | 48 | 1014.6 |
| 20260504222555 | 68 | 185 | 2.0 | 13.0 | 0.00 | 0.00 | 0.00 | 48 | 1014.6 |
| 20260504222056 | 68 | 192 | 5.0 | 10.0 | 0.00 | 0.00 | 0.00 | 47 | 1014.7 |
| 20260504221555 | 69 | 189 | 3.0 | 10.0 | 0.00 | 0.00 | 0.00 | 48 | 1014.8 |
| 20260504221055 | 69 | 199 | 3.0 | 10.0 | 0.00 | 0.00 | 0.00 | 47 | 1014.7 |
| 20260504220555 | 69 | 202 | 2.0 | 15.0 | 0.00 | 0.00 | 0.00 | 48 | 1014.8 |
| 20260504220055 | 69 | 201 | 4.0 | 15.0 | 0.00 | 0.00 | 0.00 | 47 | 1014.7 |
| 20260504215555 | 69 | 191 | 3.0 | 10.0 | 0.00 | 0.00 | 0.00 | 48 | 1014.7 |
| 20260504215055 | 69 | 189 | 3.0 | 13.0 | 0.00 | 0.00 | 0.00 | 47 | 1014.7 |
| 20260504214555 | 69 | 198 | 3.0 | 13.0 | 0.00 | 0.00 | 0.00 | 47 | 1014.7 |
| 20260504214055 | 70 | 193 | 4.0 | 10.0 | 0.00 | 0.00 | 0.00 | 47 | 1014.6 |
| 20260504213555 | 70 | 193 | 3.0 | 10.0 | 0.00 | 0.00 | 0.00 | 47 | 1014.8 |
| 20260504213055 | 70 | 198 | 1.0 | 10.0 | 0.00 | 0.00 | 0.00 | 47 | 1014.7 |
| 20260504212555 | 70 | 185 | 2.0 | 9.0 | 0.00 | 0.00 | 0.00 | 48 | 1014.7 |
| 20260504212055 | 70 | 187 | 3.0 | 10.0 | 0.00 | 0.00 | 0.00 | 47 | 1014.8 |
| 20260504211555 | 70 | 182 | 2.0 | 11.0 | 0.00 | 0.00 | 0.00 | 45 | 1014.8 |
| 20260504211056 | 70 | 178 | 5.0 | 11.0 | 0.00 | 0.00 | 0.00 | 46 | 1014.6 |
| 20260504210555 | 71 | 192 | 5.0 | 13.0 | 0.00 | 0.00 | 0.00 | 45 | 1014.7 |
| 20260504210055 | 71 | 201 | 6.0 | 13.0 | 0.00 | 0.00 | 0.00 | 45 | 1014.8 |
| 20260504205555 | 71 | 198 | 2.0 | 11.0 | 0.00 | 0.00 | 0.00 | 46 | 1014.8 |
| 20260504205055 | 71 | 182 | 3.0 | 8.0 | 0.00 | 0.00 | 0.00 | 45 | 1014.9 |
| 20260504204555 | 71 | 193 | 2.0 | 12.0 | 0.00 | 0.00 | 0.00 | 46 | 1014.9 |
| 20260504204055 | 71 | 193 | 5.0 | 12.0 | 0.00 | 0.00 | 0.00 | 44 | 1014.9 |
| 20260504203555 | 72 | 192 | 3.0 | 7.0 | 0.00 | 0.00 | 0.00 | 44 | 1015.0 |
| 20260504203055 | 72 | 189 | 2.0 | 6.0 | 0.00 | 0.00 | 0.00 | 45 | 1015.1 |
| 20260504202555 | 72 | 240 | 1.0 | 7.0 | 0.00 | 0.00 | 0.00 | 45 | 1015.1 |
| 20260504202055 | 72 | 194 | 1.0 | 7.0 | 0.00 | 0.00 | 0.00 | 46 | 1015.0 |
| 20260504201555 | 72 | 185 | 1.0 | 8.0 | 0.00 | 0.00 | 0.00 | 44 | 1015.1 |
| 20260504201055 | 73 | 189 | 3.0 | 8.0 | 0.00 | 0.00 | 0.00 | 44 | 1015.1 |
| 20260504200555 | 73 | 166 | 2.0 | 8.0 | 0.00 | 0.00 | 0.00 | 46 | 1015.2 |
| 20260504200055 | 73 | 199 | 1.0 | 8.0 | 0.00 | 0.00 | 0.00 | 45 | 1015.3 |
| 20260504195555 | 72 | 192 | 1.0 | 8.0 | 0.00 | 0.00 | 0.00 | 44 | 1015.4 |
| 20260504195055 | 72 | 211 | 1.0 | 10.0 | 0.00 | 0.00 | 0.00 | 45 | 1015.4 |
| 20260504194555 | 72 | 191 | 3.0 | 10.0 | 0.00 | 0.00 | 0.00 | 44 | 1015.5 |
| 20260504194058 | 73 | 190 | 4.0 | 8.0 | 0.00 | 0.00 | 0.00 | 44 | 1015.5 |
| 20260504193555 | 73 | 217 | 1.0 | 9.0 | 0.00 | 0.00 | 0.00 | 46 | 1015.7 |
| 20260504193057 | 73 | 197 | 2.0 | 9.0 | 0.00 | 0.00 | 0.00 | 44 | 1015.9 |
| 20260504192556 | 73 | 0 | 0.0 | 7.0 | 0.00 | 0.00 | 0.00 | 44 | 1016.0 |
| 20260504192057 | 73 | 0 | 0.0 | 7.0 | 0.00 | 0.00 | 0.00 | 45 | 1016.1 |
| 20260504191556 | 72 | 0 | 0.0 | 8.0 | 0.00 | 0.00 | 0.00 | 47 | 1016.1 |
| 20260504191057 | 72 | 205 | 2.0 | 8.0 | 0.00 | 0.00 | 0.00 | 44 | 1016.1 |
| 20260504190555 | 73 | 199 | 1.0 | 8.0 | 0.00 | 0.00 | 0.00 | 43 | 1016.2 |
| 20260504190055 | 73 | 0 | 0.0 | 7.0 | 0.00 | 0.00 | 0.00 | 46 | 1016.4 |
| 20260504185557 | 72 | 248 | 2.0 | 7.0 | 0.00 | 0.00 | 0.00 | 45 | 1016.4 |
| 20260504185055 | 73 | 0 | 0.0 | 4.0 | 0.00 | 0.00 | 0.00 | 44 | 1016.6 |
| 20260504184555 | 72 | 0 | 0.0 | 5.0 | 0.00 | 0.00 | 0.00 | 44 | 1016.5 |
| 20260504184056 | 72 | 271 | 1.0 | 5.0 | 0.00 | 0.00 | 0.00 | 48 | 1016.6 |
| 20260504183558 | 71 | 0 | 0.0 | 4.0 | 0.00 | 0.00 | 0.00 | 45 | 1016.6 |
| 20260504183055 | 71 | 0 | 0.0 | 6.0 | 0.00 | 0.00 | 0.00 | 46 | 1016.8 |
| 20260504182557 | 71 | 0 | 0.0 | 6.0 | 0.00 | 0.00 | 0.00 | 47 | 1016.8 |
| 20260504182056 | 71 | 202 | 1.0 | 6.0 | 0.00 | 0.00 | 0.00 | 46 | 1016.7 |
| 20260504181558 | 70 | 181 | 1.0 | 7.0 | 0.00 | 0.00 | 0.00 | 47 | 1016.8 |
| 20260504181055 | 70 | 187 | 2.0 | 7.0 | 0.00 | 0.00 | 0.00 | 45 | 1016.8 |
| 20260504180555 | 70 | 0 | 0.0 | 9.0 | 0.00 | 0.00 | 0.00 | 48 | 1016.8 |
| 20260504180055 | 70 | 198 | 5.0 | 9.0 | 0.00 | 0.00 | 0.00 | 45 | 1016.9 |
| 20260504175556 | 71 | 293 | 1.0 | 4.0 | 0.00 | 0.00 | 0.00 | 46 | 1016.9 |
| 20260504175055 | 70 | 0 | 0.0 | 4.0 | 0.00 | 0.00 | 0.00 | 47 | 1017.1 |
| 20260504174557 | 69 | 0 | 0.0 | 4.0 | 0.00 | 0.00 | 0.00 | 48 | 1017.1 |
| 20260504174055 | 69 | 0 | 0.0 | 6.0 | 0.00 | 0.00 | 0.00 | 47 | 1017.0 |
| 20260504173555 | 69 | 0 | 0.0 | 9.0 | 0.00 | 0.00 | 0.00 | 47 | 1017.1 |
| 20260504173058 | 69 | 305 | 1.0 | 9.0 | 0.00 | 0.00 | 0.00 | 46 | 1017.2 |
| 20260504172555 | 70 | 0 | 0.0 | 3.0 | 0.00 | 0.00 | 0.00 | 45 | 1017.2 |
| 20260504172056 | 70 | 0 | 0.0 | 4.0 | 0.00 | 0.00 | 0.00 | 47 | 1017.3 |
| 20260504171559 | 70 | 0 | 0.0 | 4.0 | 0.00 | 0.00 | 0.00 | 46 | 1017.4 |
| 20260504171037 | 69 | 0 | 0.0 | 6.0 | 0.00 | 0.00 | 0.00 | 48 | 1017.5 |
| 20260504170536 | 68 | 0 | 0.0 | 6.0 | 0.00 | 0.00 | 0.00 | 46 | 1017.3 |